星链-35263(STARLINK-35263)

导读

STARLINK-35263是美国太空探索技术公司SpaceX星链(Starlink)星座的卫星,由美国在2025年9月13日发射升空,属于星链星座低轨卫星组网扩容的组成部分,旨在为全球提供高速低延迟的卫星互联网服务,弥补地面网络覆盖盲区,提升全球网络接入的普惠性。

基本信息
目录编号:
65597
目录名称:
STARLINK-35263
国际标识:
2025-207F
轨道中心:
EARTH
卫星名称:
星链-35263
卫星全名:
星链-35263(STARLINK-35263)
卫星状态:
在轨 (已飞行273 天)
发射日期:
2025-09-13 UTC
国别 :
美国 (US)
星等 :
--
轨道信息
数据来源 国际轨道数据 AOE轨道数据
星历时间 2026-06-13T12:57:41+0800
9小时前
查看轨道信息
2026-06-12T00:00:00+0800
1天前
查看轨道信息
半长轴 6927.634km 6927.593km
偏心率 0.0001676 0.0002145
轨道倾角 97.365° 97.376°
近地点辐角 138.009° 152.918°
升交点赤经 231.955° 230.487°
平近点角 222.127° 144.855°
近地点 548.335km 547.97km
远地点 550.659km 550.942km
周期 95.639分钟 95.639分钟
每日圈数 15.056548 15.05668
详细信息
固有亮度:
5
最大亮度:
2.5
卫星平台:
Starlink V1.0
覆盖范围:
全球
运营商:
太空探索技术公司
运营商所在国:
美国
制造商(研发单位):
太空探索技术公司
制造商所在国:
美国
使用方式:
暂无
卫星简介
Starlink 计划是 SpaceX 推出的全球卫星互联网项目,通过发射低轨道卫星,为全球尤其是偏远地区提供高速、低延迟的互联网服务。自 2019 年起,Starlink 已部署数千颗卫星,旨在缩小全球数字鸿沟,推动互联网普及。该项目还为军事、航空等行业提供通信支持,带来广泛经济效益。
2D轨道图
3D轨道图
轨道高度分析图
轨道倾角分析图
轨道综合分析图
查看轨道综合分析图